Regional Weather Roundup
Issued by NWS

Home | Current Version | Previous Version | Text Only | Print | Product List | Glossary Off
Versions: 1 2 3 4 5 6 7 8 9 10 11 12 13 14 15 16 17 18 19 20 21 22 23 24 25 26 27 28 29 30 31 32 33 34 35 36 37 38 39 40 41 42 43 44 45 46 47 48 49 50

000
ASUS43 KLSX 300507
RWRMO

WEATHER SUMMARY FOR MISSOURI
NATIONAL WEATHER SERVICE SPRINGFIELD MO
1200 AM CDT MON MAR 30 2015

NOTE: "FAIR" INDICATES FEW OR NO CLOUDS BELOW 12,000 FEET WITH NO
       SIGNIFICANT WEATHER AND/OR OBSTRUCTIONS TO VISIBILITY.
       CURRENT SKY AND/OR WEATHER CONDITIONS ARE NOT AVAILABLE FOR
       CHILLICOTHE AND FARMINGTON.

MOZ001>031-035>038-043-044-053-054-300600-
...NORTHERN AND WESTERN MISSOURI...

CITY           SKY/WX    TMP DP  RH WIND       PRES   REMARKS
KANSAS CTY INT CLEAR     51  34  52 W6        30.16R
KANSAS C DTWN  CLEAR     46  37  71 CALM      30.16R
LEE`S SUMMIT   CLEAR     49  36  61 SW5       30.17R
CHILLICOTHE      N/A     44  34  67 W3        30.14R
KIRKSVILLE     CLEAR     42  34  73 W7        30.11R

$$
MOZ066>068-077>081-088>096-101>105-300600-
...SOUTHWEST MISSOURI...

CITY           SKY/WX    TMP DP  RH WIND       PRES   REMARKS
SPRINGFIELD    CLEAR     48  41  76 W6        30.16R
JOPLIN         CLEAR     45  40  82 CALM      30.18R

$$
MOZ032>034-039>042-045>050-055>058-069>072-300600-
...CENTRAL MISSOURI...

CITY           SKY/WX    TMP DP  RH WIND       PRES   REMARKS
COLUMBIA       CLEAR     48  38  68 W7        30.13R
JEFFERSON CITY CLEAR     44  39  82 CALM      30.14R
ROLLA          CLEAR     47  38  71 NW6       30.12R
SEDALIA        CLEAR     47  37  68 W7        30.15F
WHITEMAN AFB   CLEAR     42  36  77 W5        30.15R
WARRENSBURG    CLEAR     45  36  70 W3        30.17R
OSAGE BEACH    CLEAR     50  37  62 NW3       30.15S

$$
MOZ051-052-059>065-300600-
...EAST CENTRAL MISSOURI...

CITY           SKY/WX    TMP DP  RH WIND       PRES   REMARKS
ST LOUIS INTL  PTCLDY    48  38  68 W5        30.09R
SPIRIT OF STL  CLEAR     46  38  73 W7        30.09R
ST CHARLES     CLEAR     47  38  71 W8        30.09R

$$
MOZ072>076-082>087-097>100-106>115-300600-
...SOUTH CENTRAL AND SOUTHEAST MISSOURI...

CITY           SKY/WX    TMP DP  RH WIND       PRES   REMARKS
CAPE GIRARDEAU MOCLDY    47  45  93 W8        30.10S
FARMINGTON     MOCLDY    48  37  66 W5        30.14R
POPLAR BLUFF   PTCLDY    47  44  90 NW3       30.09F
WEST PLAINS    CLEAR     51  39  63 NW6       30.14R

$$


USA.gov is the U.S. government's official web portal to all federal, state and local government web resources and services.